This is the latest recevied weather packets stored in our database for station/object KY0TEQ-13. If no packets are shown the sender has not sent any weather packets the latest 1 day(s).
| Time | Temp. | Humidity | Pressure | Rain* | Wind** | Luminosity | Snow |
|---|---|---|---|---|---|---|---|
| 1778068549 | 3.33° C | 75% | 1298.5 hPa | 0 mm | - | 0 W/m² | - |
| 1778067643 | 3.33° C | 74% | 1298.1 hPa | 0 mm | - | 0 W/m² | - |
| 1778066734 | 3.33° C | 76% | 1298.2 hPa | 0 mm | - | 0 W/m² | - |
| 1778065826 | 3.33° C | 76% | 1297.9 hPa | 0 mm | - | 0 W/m² | - |
| 1778065524 | 3.33° C | 76% | 1298.1 hPa | 0 mm | - | 0 W/m² | - |
| 1778065221 | 3.33° C | 76% | 1298.1 hPa | 0 mm | - | 0 W/m² | - |
| 1778064917 | 3.33° C | 76% | 1297.9 hPa | 0 mm | - | 0 W/m² | - |
| 1778062799 | 3.89° C | 75% | 1298.1 hPa | 0 mm | - | 0 W/m² | - |
| 1778062495 | 3.89° C | 75% | 1297.8 hPa | 0 mm | - | 0 W/m² | - |
| 1778062192 | 4.44° C | 75% | 1297.7 hPa | 0 mm | - | 0 W/m² | - |
| 1778061891 | 4.44° C | 73% | 1297.9 hPa | 0 mm | - | 0 W/m² | - |
| 1778061287 | 4.44° C | 72% | 1297.8 hPa | 0 mm | - | 0 W/m² | - |
| 1778060378 | 4.44° C | 71% | 1298.1 hPa | 0 mm | - | 0 W/m² | - |
| 1778060077 | 4.44° C | 72% | 1297.8 hPa | 0 mm | - | 0 W/m² | - |
| 1778059774 | 4.44° C | 72% | 1297.9 hPa | 0 mm | - | 0 W/m² | - |
| 1778059472 | 4.44° C | 73% | 1297.8 hPa | 0 mm | - | 0 W/m² | - |
| 1778059168 | 4.44° C | 74% | 1297.8 hPa | 0 mm | - | 0 W/m² | - |
| 1778058558 | 5° C | 72% | 1297.8 hPa | 0 mm | - | 0 W/m² | - |
| 1778057649 | 5° C | 70% | 1297.6 hPa | 0 mm | - | 0 W/m² | - |
| 1778056436 | 5° C | 70% | 1297.8 hPa | 0 mm | - | 0 W/m² | - |
| 1778055830 | 5.56° C | 70% | 1297.9 hPa | 0 mm | - | 0 W/m² | - |
| 1778054618 | 5° C | 73% | 1298.2 hPa | 0 mm | - | 0 W/m² | - |
| 1778054316 | 5° C | 73% | 1298.1 hPa | 0 mm | - | 0 W/m² | - |
| 1778054013 | 5.56° C | 73% | 1298.2 hPa | 0 mm | - | 0 W/m² | - |
| 1778053710 | 5.56° C | 72% | 1298.2 hPa | 0 mm | - | 0 W/m² | - |
* Rain latest hour (hover to see other rain measurements)
** Current wind speed in m/s (hover to see current wind gust speed)